Tracking 18844 objects as of 21-Nov-2017
HD Live streaming from Space Station
objects crossing your sky now

ASTRA 2D

Track ASTRA 2D now!
ASTRA 2D is classified as:


NORAD ID: 26638
Int'l Code: 2000-081A
Perigee: 35,787.4 km
Apogee: 35,800.9 km
Inclination: 3.9 °
Period: 1,436.1 minutes
Semi major axis: 42165 km
RCS: 0.6797 m2 (medium)
Launch date: December 20, 2000
Source: SOCIETE EUROPEENNE DES SATELLITES (SES)
Launch site: FRENCH GUIANA (FRGUI)

Direct-to-home; broadcasting, multimedia; 16 Ku-band; UK and Ireland.
aabbcc
Your satellite tracking list
Your tracking list is empty




NASA's NSSDC Master Catalog

Two Line Element Set (TLE):
1 26638U 00081A   17323.86183173 +.00000050 +00000-0 +00000-0 0  9992
2 26638 003.9489 069.3098 0001596 172.0175 187.7111 01.00270354021516
Source of the keplerian elements: AFSPC